• In Hungary
  • List of Countries
  • For 7 days
  • Water Temperature
  • Satellite Maps
  • Weather Map
  • News
  • Weather Widgets
  • user-avatar
    Login

    Hourly Weather Oblasy

    Today, 27 May, Sunday

    Time Temperature Precipitation Wind Pressure Humidity
    00:00 +16°C° 0 mm 1 mps 746 mmHg 88%
    01:00 +15°C° 0 mm 0 mps 746 mmHg 88%
    02:00 +15°C° 0 mm 0 mps 746 mmHg 89%
    03:00 +14°C° 0 mm 0 mps 746 mmHg 89%
    04:00 +14°C° 0 mm 0 mps 746 mmHg 89%
    05:00 +18°C° 0 mm 1 mps 746 mmHg 84%
    06:00 +20°C° 0 mm 1 mps 747 mmHg 79%
    07:00 +21°C° 0 mm 1 mps 747 mmHg 74%
    08:00 +23°C° 0.2 mm 2 mps 747 mmHg 68%
    09:00 +24°C° 0.2 mm 2 mps 747 mmHg 62%
    10:00 +26°C° 0.2 mm 2 mps 747 mmHg 56%
    11:00 +26°C° 0 mm 2 mps 747 mmHg 53%
    12:00 +27°C° 0 mm 3 mps 747 mmHg 51%
    13:00 +28°C° 0 mm 3 mps 747 mmHg 48%
    14:00 +28°C° 0.1 mm 3 mps 746 mmHg 50%
    15:00 +28°C° 0.1 mm 3 mps 746 mmHg 52%
    16:00 +27°C° 0.1 mm 3 mps 746 mmHg 54%
    17:00 +26°C° 0.1 mm 3 mps 746 mmHg 62%
    18:00 +24°C° 0.1 mm 3 mps 746 mmHg 69%
    19:00 +23°C° 0.1 mm 2 mps 746 mmHg 76%
    20:00 +21°C° 0 mm 3 mps 746 mmHg 80%
    21:00 +20°C° 0 mm 3 mps 746 mmHg 83%
    22:00 +19°C° 0 mm 3 mps 747 mmHg 87%
    23:00 +18°C° 0 mm 3 mps 747 mmHg 89%

    Tomorrow, 28 May, Monday

    Time Temperature Precipitation Wind Pressure Humidity
    00:00 +18°C° 0 mm 3 mps 747 mmHg 91%
    01:00 +17°C° 0 mm 3 mps 747 mmHg 93%
    02:00 +17°C° 0 mm 3 mps 747 mmHg 94%
    03:00 +17°C° 0 mm 3 mps 747 mmHg 95%
    04:00 +16°C° 0 mm 3 mps 747 mmHg 95%
    05:00 +18°C° 0 mm 4 mps 747 mmHg 89%
    06:00 +19°C° 0 mm 4 mps 747 mmHg 83%
    07:00 +20°C° 0 mm 5 mps 748 mmHg 77%
    08:00 +22°C° 0 mm 5 mps 748 mmHg 70%
    09:00 +23°C° 0 mm 5 mps 748 mmHg 64%
    10:00 +25°C° 0 mm 5 mps 748 mmHg 58%
    11:00 +26°C° 0 mm 5 mps 748 mmHg 56%
    12:00 +26°C° 0 mm 5 mps 748 mmHg 54%
    13:00 +27°C° 0 mm 5 mps 747 mmHg 52%
    14:00 +26°C° 0 mm 5 mps 747 mmHg 53%
    15:00 +26°C° 0 mm 6 mps 747 mmHg 54%
    16:00 +26°C° 0 mm 6 mps 747 mmHg 55%
    17:00 +23°C° 0 mm 5 mps 747 mmHg 61%
    18:00 +22°C° 0 mm 5 mps 747 mmHg 66%
    19:00 +21°C° 0 mm 4 mps 747 mmHg 72%
    20:00 +20°C° 0 mm 4 mps 747 mmHg 74%
    21:00 +19°C° 0 mm 5 mps 747 mmHg 76%
    22:00 +17°C° 0 mm 5 mps 747 mmHg 77%
    23:00 +16°C° 0 mm 5 mps 747 mmHg 78%

    Day after tomorrow, 29 May, Tuesday

    Time Temperature Precipitation Wind Pressure Humidity
    00:00 +15°C° 0 mm 4 mps 747 mmHg 79%
    01:00 +14°C° 0 mm 4 mps 746 mmHg 80%
    02:00 +14°C° 0 mm 4 mps 746 mmHg 80%
    03:00 +13°C° 0 mm 4 mps 746 mmHg 80%
    04:00 +13°C° 0 mm 4 mps 746 mmHg 81%
    05:00 +14°C° 0 mm 4 mps 746 mmHg 78%
    06:00 +17°C° 0 mm 4 mps 746 mmHg 75%
    07:00 +18°C° 0 mm 4 mps 746 mmHg 72%
    08:00 +20°C° 0 mm 4 mps 746 mmHg 68%
    09:00 +22°C° 0 mm 5 mps 745 mmHg 64%
    10:00 +25°C° 0 mm 5 mps 745 mmHg 60%
    11:00 +26°C° 0 mm 5 mps 745 mmHg 56%
    12:00 +27°C° 0 mm 5 mps 745 mmHg 52%
    13:00 +28°C° 0 mm 6 mps 744 mmHg 49%
    14:00 +28°C° 0 mm 6 mps 744 mmHg 50%
    15:00 +27°C° 0 mm 5 mps 744 mmHg 52%
    16:00 +27°C° 0 mm 5 mps 743 mmHg 53%
    17:00 +26°C° 0 mm 5 mps 743 mmHg 59%
    18:00 +23°C° 0 mm 5 mps 743 mmHg 65%
    19:00 +22°C° 0 mm 4 mps 743 mmHg 70%
    20:00 +21°C° 0.1 mm 4 mps 743 mmHg 74%
    21:00 +20°C° 0.1 mm 4 mps 743 mmHg 78%
    22:00 +19°C° 0.1 mm 3 mps 743 mmHg 82%
    23:00 +18°C° 0.1 mm 3 mps 743 mmHg 83%

    30 May, Wednesday

    Time Temperature Precipitation Wind Pressure Humidity
    00:00 +18°C° 0.1 mm 3 mps 743 mmHg 84%
    01:00 +17°C° 0.1 mm 2 mps 742 mmHg 85%
    02:00 +17°C° 0 mm 2 mps 742 mmHg 84%
    03:00 +17°C° 0 mm 2 mps 742 mmHg 83%
    04:00 +17°C° 0 mm 2 mps 742 mmHg 83%
    05:00 +18°C° 0 mm 2 mps 742 mmHg 79%
    06:00 +19°C° 0 mm 2 mps 742 mmHg 76%
    07:00 +20°C° 0 mm 2 mps 742 mmHg 72%
    08:00 +23°C° 0.2 mm 2 mps 742 mmHg 67%
    09:00 +24°C° 0.2 mm 2 mps 742 mmHg 62%
    10:00 +26°C° 0.2 mm 2 mps 741 mmHg 56%
    11:00 +27°C° 0.2 mm 1 mps 741 mmHg 53%
    12:00 +27°C° 0.2 mm 1 mps 741 mmHg 51%
    13:00 +28°C° 0.2 mm 1 mps 741 mmHg 48%
    14:00 +28°C° 0 mm 1 mps 740 mmHg 48%
    15:00 +28°C° 0 mm 1 mps 740 mmHg 48%
    16:00 +28°C° 0 mm 1 mps 740 mmHg 48%
    17:00 +27°C° 0 mm 1 mps 740 mmHg 53%
    18:00 +25°C° 0 mm 1 mps 739 mmHg 58%
    19:00 +24°C° 0 mm 1 mps 739 mmHg 64%
    20:00 +23°C° 0.5 mm 1 mps 739 mmHg 67%
    21:00 +21°C° 0.5 mm 1 mps 739 mmHg 71%
    22:00 +20°C° 0.5 mm 1 mps 739 mmHg 75%
    23:00 +20°C° 0.1 mm 1 mps 739 mmHg 77%

    31 May, Thursday

    Time Temperature Precipitation Wind Pressure Humidity
    00:00 +19°C° 0.1 mm 1 mps 739 mmHg 79%
    01:00 +17°C° 0.1 mm 0 mps 739 mmHg 80%
    02:00 +17°C° 0 mm 0 mps 738 mmHg 81%
    03:00 +16°C° 0 mm 0 mps 738 mmHg 82%
    04:00 +16°C° 0 mm 0 mps 738 mmHg 82%
    05:00 +20°C° 0 mm 1 mps 738 mmHg 78%
    06:00 +21°C° 0 mm 1 mps 738 mmHg 73%
    07:00 +23°C° 0 mm 1 mps 738 mmHg 69%
    08:00 +24°C° 0.6 mm 1 mps 738 mmHg 65%
    09:00 +25°C° 0.6 mm 2 mps 738 mmHg 60%
    10:00 +27°C° 0.6 mm 2 mps 738 mmHg 56%
    11:00 +27°C° 0.6 mm 3 mps 738 mmHg 56%
    12:00 +27°C° 0.6 mm 3 mps 737 mmHg 56%
    13:00 +27°C° 0.6 mm 3 mps 737 mmHg 56%
    14:00 +27°C° 0.9 mm 4 mps 737 mmHg 60%
    15:00 +26°C° 0.9 mm 4 mps 737 mmHg 63%
    16:00 +26°C° 0.9 mm 5 mps 737 mmHg 67%
    17:00 +23°C° 0.4 mm 5 mps 737 mmHg 72%
    18:00 +22°C° 0.4 mm 4 mps 738 mmHg 78%
    19:00 +20°C° 0.4 mm 4 mps 738 mmHg 83%
    20:00 +19°C° 0 mm 4 mps 738 mmHg 83%
    21:00 +17°C° 0 mm 5 mps 739 mmHg 84%
    22:00 +16°C° 0 mm 5 mps 739 mmHg 84%
    23:00 +15°C° 0 mm 5 mps 739 mmHg 83%

    1 June, Friday

    Time Temperature Precipitation Wind Pressure Humidity
    00:00 +14°C° 0 mm 5 mps 740 mmHg 82%
    01:00 +13°C° 0 mm 5 mps 740 mmHg 81%
    02:00 +13°C° 0 mm 4 mps 740 mmHg 81%
    03:00 +12°C° 0 mm 4 mps 741 mmHg 81%
    04:00 +11°C° 0 mm 4 mps 741 mmHg 80%
    05:00 +12°C° 0 mm 4 mps 742 mmHg 76%
    06:00 +13°C° 0 mm 5 mps 742 mmHg 72%
    07:00 +14°C° 0 mm 5 mps 742 mmHg 68%
    08:00 +15°C° 0 mm 5 mps 743 mmHg 62%
    09:00 +16°C° 0 mm 6 mps 743 mmHg 56%
    10:00 +17°C° 0 mm 6 mps 743 mmHg 50%
    11:00 +19°C° 0 mm 6 mps 743 mmHg 48%
    12:00 +19°C° 0 mm 6 mps 743 mmHg 45%
    13:00 +19°C° 0 mm 6 mps 743 mmHg 43%
    14:00 +19°C° 0 mm 6 mps 743 mmHg 44%
    15:00 +19°C° 0 mm 6 mps 743 mmHg 45%
    16:00 +17°C° 0 mm 5 mps 743 mmHg 46%
    17:00 +16°C° 0 mm 5 mps 743 mmHg 52%
    18:00 +15°C° 0 mm 4 mps 743 mmHg 58%
    19:00 +14°C° 0 mm 4 mps 743 mmHg 64%
    20:00 +13°C° 0 mm 3 mps 744 mmHg 67%
    21:00 +12°C° 0 mm 3 mps 744 mmHg 69%
    22:00 +10°C° 0 mm 3 mps 744 mmHg 71%
    23:00 +10°C° 0 mm 3 mps 744 mmHg 73%
    Show more